TimeEDT,TemperatureF,Dew PointF,Humidity,Sea Level PressureIn,VisibilityMPH,Wind Direction,Wind SpeedMPH,Gust SpeedMPH,PrecipitationIn,Events,Conditions,WindDirDegrees,DateUTC
12:15 AM,57.2,53.6,88,30.20,10.0,Calm,Calm,-,N/A,,Partly Cloudy,0,2012-10-04 04:15:00
12:35 AM,57.2,53.6,88,30.20,10.0,Calm,Calm,-,N/A,,Partly Cloudy,0,2012-10-04 04:35:00
12:55 AM,57.2,53.6,88,30.20,10.0,Calm,Calm,-,N/A,,Clear,0,2012-10-04 04:55:00
1:15 AM,57.2,53.6,88,30.20,10.0,Calm,Calm,-,N/A,,Clear,0,2012-10-04 05:15:00
1:35 AM,55.4,53.6,94,30.20,10.0,Calm,Calm,-,N/A,,Clear,0,2012-10-04 05:35:00
1:55 AM,57.2,53.6,88,30.20,10.0,Calm,Calm,-,N/A,,Clear,0,2012-10-04 05:55:00
2:15 AM,57.2,53.6,88,30.20,10.0,Calm,Calm,-,N/A,,Clear,0,2012-10-04 06:15:00
2:35 AM,57.2,53.6,88,30.20,10.0,Calm,Calm,-,N/A,,Clear,0,2012-10-04 06:35:00
2:55 AM,55.4,53.6,94,30.19,10.0,Calm,Calm,-,N/A,,Clear,0,2012-10-04 06:55:00
3:15 AM,55.4,53.6,94,30.19,10.0,Calm,Calm,-,N/A,,Clear,0,2012-10-04 07:15:00
3:35 AM,55.4,53.6,94,30.17,10.0,Calm,Calm,-,N/A,,Clear,0,2012-10-04 07:35:00
3:55 AM,55.4,51.8,88,30.20,10.0,SSE,3.5,-,N/A,,Clear,150,2012-10-04 07:55:00
4:15 AM,55.4,53.6,94,30.19,10.0,SSE,3.5,-,N/A,,Clear,150,2012-10-04 08:15:00
4:35 AM,55.4,53.6,94,30.18,10.0,Calm,Calm,-,N/A,,Clear,0,2012-10-04 08:35:00
4:55 AM,55.4,53.6,94,30.18,10.0,Calm,Calm,-,N/A,,Clear,0,2012-10-04 08:55:00
5:15 AM,55.4,53.6,94,30.19,10.0,South,3.5,-,N/A,,Clear,190,2012-10-04 09:15:00
5:35 AM,55.4,53.6,94,30.19,10.0,Calm,Calm,-,N/A,,Clear,0,2012-10-04 09:35:00
5:55 AM,55.4,53.6,94,30.19,10.0,Calm,Calm,-,N/A,,Clear,0,2012-10-04 09:55:00
6:15 AM,55.4,53.6,94,30.20,10.0,SSW,5.8,-,N/A,,Clear,200,2012-10-04 10:15:00
6:35 AM,55.4,53.6,94,30.20,10.0,SSW,4.6,-,N/A,,Clear,200,2012-10-04 10:35:00
6:55 AM,53.6,51.8,94,30.20,8.0,SSW,4.6,-,N/A,,Clear,200,2012-10-04 10:55:00
7:15 AM,53.6,51.8,94,30.20,10.0,South,4.6,-,N/A,,Clear,190,2012-10-04 11:15:00
7:35 AM,53.6,51.8,94,30.20,9.0,SSW,4.6,-,N/A,,Clear,210,2012-10-04 11:35:00
7:55 AM,53.6,53.6,100,30.20,5.0,SSW,4.6,-,N/A,,Clear,200,2012-10-04 11:55:00
8:15 AM,55.4,51.8,88,30.20,10.0,SSW,3.5,-,N/A,,Clear,210,2012-10-04 12:15:00
8:35 AM,55.4,53.6,94,30.21,10.0,SSW,5.8,-,N/A,,Clear,210,2012-10-04 12:35:00
8:55 AM,57.2,53.6,88,30.21,10.0,SW,4.6,-,N/A,,Clear,220,2012-10-04 12:55:00
9:15 AM,57.2,53.6,88,30.21,10.0,SW,4.6,-,N/A,,Clear,230,2012-10-04 13:15:00
9:35 AM,57.2,53.6,88,30.21,10.0,SW,6.9,-,N/A,,Clear,230,2012-10-04 13:35:00
9:55 AM,59.0,53.6,82,30.22,10.0,SW,6.9,-,N/A,,Clear,220,2012-10-04 13:55:00
10:15 AM,60.8,53.6,77,30.21,10.0,SW,8.1,-,N/A,,Clear,220,2012-10-04 14:15:00
10:35 AM,60.8,53.6,77,30.21,10.0,SW,9.2,-,N/A,,Clear,220,2012-10-04 14:35:00
10:55 AM,62.6,53.6,72,30.21,10.0,SW,6.9,-,N/A,,Clear,220,2012-10-04 14:55:00
11:15 AM,62.6,53.6,72,30.21,10.0,SSW,10.4,-,N/A,,Clear,210,2012-10-04 15:15:00
11:35 AM,64.4,55.4,73,30.21,10.0,SW,9.2,-,N/A,,Clear,220,2012-10-04 15:35:00
11:55 AM,66.2,53.6,64,30.21,10.0,SW,11.5,16.1,N/A,,Clear,230,2012-10-04 15:55:00
12:15 PM,68.0,53.6,60,30.20,10.0,SW,10.4,-,N/A,,Partly Cloudy,230,2012-10-04 16:15:00
12:35 PM,68.0,53.6,60,30.20,10.0,WSW,9.2,19.6,N/A,,Mostly Cloudy,240,2012-10-04 16:35:00
12:55 PM,69.8,51.8,53,30.19,10.0,SW,12.7,-,N/A,,Mostly Cloudy,220,2012-10-04 16:55:00
1:15 PM,69.8,51.8,53,30.19,10.0,WSW,13.8,18.4,N/A,,Scattered Clouds,240,2012-10-04 17:15:00
1:35 PM,69.8,51.8,53,30.19,10.0,WSW,10.4,18.4,N/A,,Partly Cloudy,250,2012-10-04 17:35:00
1:55 PM,69.8,51.8,53,30.18,10.0,WSW,15.0,21.9,N/A,,Partly Cloudy,250,2012-10-04 17:55:00
2:35 PM,71.6,50.0,46,30.16,10.0,SW,11.5,17.3,N/A,,Scattered Clouds,230,2012-10-04 18:35:00
2:55 PM,71.6,50.0,46,30.16,10.0,SW,10.4,20.7,N/A,,Partly Cloudy,220,2012-10-04 18:55:00
3:15 PM,71.6,50.0,46,30.16,10.0,SW,11.5,20.7,N/A,,Partly Cloudy,230,2012-10-04 19:15:00
3:35 PM,71.6,51.8,50,30.16,10.0,West,15.0,18.4,N/A,,Mostly Cloudy,260,2012-10-04 19:35:00
3:55 PM,71.6,50.0,46,30.16,10.0,WSW,12.7,23.0,N/A,,Mostly Cloudy,240,2012-10-04 19:55:00
4:15 PM,69.8,48.2,46,30.16,10.0,WSW,11.5,16.1,N/A,,Scattered Clouds,240,2012-10-04 20:15:00
4:35 PM,69.8,50.0,49,30.15,10.0,WSW,6.9,-,N/A,,Scattered Clouds,240,2012-10-04 20:35:00
4:55 PM,69.8,50.0,49,30.15,10.0,WSW,12.7,18.4,N/A,,Mostly Cloudy,240,2012-10-04 20:55:00
5:15 PM,69.8,50.0,49,30.15,10.0,WSW,8.1,17.3,N/A,,Overcast,240,2012-10-04 21:15:00
5:35 PM,69.8,51.8,53,30.15,10.0,WSW,6.9,-,N/A,,Overcast,240,2012-10-04 21:35:00
5:55 PM,68.0,50.0,52,30.15,10.0,SW,6.9,-,N/A,,Mostly Cloudy,230,2012-10-04 21:55:00
6:15 PM,66.2,51.8,60,30.15,10.0,WSW,5.8,-,N/A,,Overcast,240,2012-10-04 22:15:00
6:35 PM,66.2,51.8,60,30.15,10.0,WSW,5.8,-,N/A,,Overcast,240,2012-10-04 22:35:00
6:55 PM,64.4,51.8,64,30.15,10.0,SW,3.5,-,N/A,,Mostly Cloudy,230,2012-10-04 22:55:00
7:15 PM,64.4,51.8,64,30.15,10.0,SW,4.6,-,N/A,,Overcast,230,2012-10-04 23:15:00
7:35 PM,62.6,51.8,68,30.15,10.0,Calm,Calm,-,N/A,,Scattered Clouds,0,2012-10-04 23:35:00
7:55 PM,62.6,51.8,68,30.16,10.0,SW,3.5,-,N/A,,Clear,230,2012-10-04 23:55:00
8:15 PM,60.8,50.0,68,30.16,10.0,SW,3.5,-,N/A,,Clear,230,2012-10-05 00:15:00
8:35 PM,60.8,50.0,68,30.16,10.0,SW,5.8,-,N/A,,Clear,220,2012-10-05 00:35:00
8:55 PM,59.0,50.0,72,30.16,10.0,SW,4.6,-,N/A,,Clear,220,2012-10-05 00:55:00
9:15 PM,59.0,51.8,77,30.16,10.0,SW,3.5,-,N/A,,Clear,230,2012-10-05 01:15:00
9:35 PM,59.0,51.8,77,30.16,10.0,SW,3.5,-,N/A,,Clear,220,2012-10-05 01:35:00
9:55 PM,57.2,50.0,77,30.16,10.0,SW,4.6,-,N/A,,Clear,220,2012-10-05 01:55:00
10:15 PM,57.2,50.0,77,30.15,10.0,SW,5.8,-,N/A,,Clear,220,2012-10-05 02:15:00
10:35 PM,57.2,50.0,77,30.15,10.0,SW,6.9,-,N/A,,Clear,220,2012-10-05 02:35:00
10:55 PM,59.0,51.8,77,30.15,10.0,SW,5.8,-,N/A,,Clear,220,2012-10-05 02:55:00
11:15 PM,57.2,51.8,82,30.15,10.0,SW,6.9,-,N/A,,Clear,220,2012-10-05 03:15:00
11:35 PM,59.0,51.8,77,30.14,10.0,SW,6.9,-,N/A,,Clear,220,2012-10-05 03:35:00
11:55 PM,57.2,51.8,82,30.14,10.0,SW,5.8,-,N/A,,Clear,220,2012-10-05 03:55:00